Brigham City, UT

10:54 PM MDT on October 23, 2019 (GMT -0600)
Brigham City

Weather History for KBMC - September, 2019

Change the Weather History Date:

Saturday, September 21, 2019

  Actual Average (WUND) Record (WUND)
Temperature  
Mean Temperature 51 °F -  
Max Temperature 61 °F - - (-1)
Min Temperature 41 °F - - (-1)
Degree Days  
Heating Degree Days 14    
Growing Degree Days 1 (Base 50)    
Moisture  
Dew Point 40 °F    
Average Humidity 67    
Maximum Humidity 91    
Minimum Humidity 33    
Precipitation  
Precipitation 0.00 in - - ()
Sea Level Pressure  
Sea Level Pressure 30.16 in    
Wind  
Wind Speed 1 mph ()    
Max Wind Speed 7 mph    
Max Gust Speed -    
Visibility 10.0 miles    
Events      
Averages and records for this station are not official NWS values.
T = Trace of Precipitation, MM = Missing Value Source: Averaged Metar Reports

Daily Weather History Graph

Daily Weather History Graph

Search for Another Location

Airport or City:

Astronomy

Sep. 21, 2019 Rise Set
Actual Time 7:14 AM MDT 7:27 PM MDT
Civil Twilight 6:46 AM MDT 7:55 PM MDT
Nautical Twilight 6:14 AM MDT 8:27 PM MDT
Astronomical Twilight 5:41 AM MDT 9:00 PM MDT
Moon No Moon Rise 2:29 PM MDT (9/21)
Length of Visible Light 13h 08m
Length of Day
12h 12m
Waning Gibbous, 54% of the Moon is Illuminated
Sep 21
Waning Gibbous
Sep 21
Last Quarter
Sep 28
New
Oct 5
First Quarter
Oct 13
Full

Hourly Weather History & Observations

Time (MDT) Temp. Windchill Dew Point Humidity Pressure Visibility Wind Dir Wind Speed Gust Speed Precip Events Conditions
12:10 AM 48.2 °F - 43.2 °F 83% 30.12 in 10.0 mi Calm Calm - N/A   Overcast
12:30 AM 48.2 °F - 43.5 °F 84% 30.12 in 10.0 mi Calm Calm - N/A   Overcast
12:50 AM 48.0 °F - 43.2 °F 83% 30.12 in 10.0 mi NNW 3.5 mph - N/A   Overcast
1:10 AM 47.3 °F - 42.8 °F 84% 30.12 in 10.0 mi NNW 5.8 mph - N/A   Overcast
1:30 AM 46.0 °F 43.1 °F 42.1 °F 86% 30.12 in 10.0 mi NW 5.8 mph - N/A   Scattered Clouds
2:10 AM 45.0 °F 43.5 °F 41.4 °F 87% 30.13 in 10.0 mi SE 3.5 mph - N/A   Scattered Clouds
2:30 AM 44.8 °F - 41.7 °F 89% 30.14 in 10.0 mi Calm Calm - N/A   Scattered Clouds
2:50 AM 45.3 °F - 41.9 °F 88% 30.14 in 10.0 mi Calm Calm - N/A   Scattered Clouds
3:10 AM 45.5 °F - 41.5 °F 86% 30.14 in 10.0 mi Calm Calm - N/A   Clear
3:30 AM 44.2 °F - 40.5 °F 87% 30.14 in 10.0 mi Calm Calm - N/A   Clear
3:50 AM 43.5 °F - 40.5 °F 89% 30.14 in 10.0 mi Calm Calm - N/A   Clear
4:10 AM 43.7 °F - 40.8 °F 90% 30.14 in 10.0 mi Calm Calm - N/A   Clear
4:30 AM 42.6 °F - 39.7 °F 90% 30.14 in 10.0 mi Calm Calm - N/A   Clear
4:50 AM 42.8 °F - 40.1 °F 90% 30.15 in 10.0 mi Calm Calm - N/A   Clear
5:10 AM 42.8 °F - 39.9 °F 90% 30.16 in 10.0 mi Calm Calm - N/A   Clear
5:30 AM 42.1 °F - 39.4 °F 90% 30.15 in 10.0 mi Calm Calm - N/A   Clear
5:50 AM 41.9 °F - 39.4 °F 91% 30.16 in 10.0 mi Calm Calm - N/A   Scattered Clouds
6:10 AM 42.1 °F - 39.4 °F 90% 30.16 in 10.0 mi Calm Calm - N/A   Mostly Cloudy
6:30 AM 42.1 °F - 39.4 °F 90% 30.16 in 10.0 mi Calm Calm - N/A   Overcast
6:50 AM 41.5 °F - 39.0 °F 91% 30.16 in 10.0 mi Calm Calm - N/A   Overcast
7:10 AM 42.1 °F - 39.4 °F 90% 30.17 in 10.0 mi Calm Calm - N/A   Scattered Clouds
7:30 AM 42.3 °F - 39.4 °F 90% 30.17 in 10.0 mi Calm Calm - N/A   Scattered Clouds
7:50 AM 41.9 °F - 39.0 °F 90% 30.18 in 10.0 mi Calm Calm - N/A   Scattered Clouds
8:10 AM 42.6 °F - 40.1 °F 91% 30.18 in 10.0 mi Calm Calm - N/A   Clear
8:30 AM 43.9 °F - 41.0 °F 90% 30.19 in 10.0 mi Calm Calm - N/A   Clear
8:50 AM 43.7 °F - 40.6 °F 89% 30.19 in 10.0 mi Calm Calm - N/A   Clear
9:10 AM 45.0 °F - 41.5 °F 88% 30.21 in 10.0 mi Calm Calm - N/A   Clear
9:30 AM 46.6 °F - 42.8 °F 87% 30.19 in 10.0 mi Calm Calm - N/A   Clear
9:50 AM 49.3 °F - 44.4 °F 83% 30.20 in 10.0 mi Calm Calm - N/A   Scattered Clouds
10:10 AM 51.4 °F - 43.0 °F 73% 30.20 in 10.0 mi Calm Calm - N/A   Mostly Cloudy
10:30 AM 52.0 °F - 41.9 °F 69% 30.20 in 10.0 mi Calm Calm - N/A   Overcast
10:50 AM 52.9 °F - 41.9 °F 66% 30.20 in 10.0 mi Calm Calm - N/A   Overcast
11:10 AM 54.5 °F - 42.3 °F 63% 30.20 in 10.0 mi Calm Calm - N/A   Overcast
11:30 AM 55.8 °F - 41.9 °F 60% 30.19 in 10.0 mi SSE 3.5 mph - N/A   Scattered Clouds
11:50 AM 56.8 °F - 42.4 °F 59% 30.19 in 10.0 mi SSW 3.5 mph - N/A   Clear
12:10 PM 57.9 °F - 42.4 °F 56% 30.19 in 10.0 mi South 6.9 mph - N/A   Clear
12:30 PM 58.5 °F - 42.8 °F 56% 30.19 in 10.0 mi Calm Calm - N/A   Scattered Clouds
12:50 PM 59.0 °F - 41.4 °F 52% 30.18 in 10.0 mi South 4.6 mph - N/A   Scattered Clouds
1:10 PM 59.9 °F - 39.9 °F 48% 30.18 in 10.0 mi WSW 4.6 mph - N/A   Mostly Cloudy
1:30 PM 60.4 °F - 39.2 °F 45% 30.17 in 10.0 mi SSW 5.8 mph - N/A   Overcast
1:50 PM 59.7 °F - 37.0 °F 43% 30.17 in 10.0 mi Calm Calm - N/A   Overcast
2:10 PM 59.4 °F - 36.7 °F 43% 30.17 in 10.0 mi West 4.6 mph - N/A   Overcast
2:40 PM 60.3 °F - 37.4 °F 43% 30.16 in 10.0 mi SW 3.5 mph - N/A   Overcast
2:50 PM 60.3 °F - 37.4 °F 43% 30.16 in 10.0 mi Calm Calm - N/A   Overcast
3:10 PM 60.3 °F - 36.5 °F 41% 30.16 in 10.0 mi Calm Calm - N/A   Overcast
3:30 PM 60.6 °F - 36.7 °F 41% 30.16 in 10.0 mi Calm Calm - N/A   Overcast
3:50 PM 61.2 °F - 35.8 °F 39% 30.15 in 10.0 mi Calm Calm - N/A   Overcast
4:10 PM 60.8 °F - 35.4 °F 39% 30.14 in 10.0 mi Calm Calm - N/A   Overcast
4:30 PM 61.0 °F - 35.6 °F 39% 30.14 in 10.0 mi Calm Calm - N/A   Overcast
4:50 PM 61.3 °F - 35.2 °F 38% 30.14 in 10.0 mi Calm Calm - N/A   Mostly Cloudy
5:10 PM 61.0 °F - 34.5 °F 37% 30.14 in 10.0 mi Calm Calm - N/A   Mostly Cloudy
5:30 PM 61.0 °F - 33.4 °F 36% 30.14 in 10.0 mi Calm Calm - N/A   Mostly Cloudy
5:50 PM 61.9 °F - 32.7 °F 34% 30.13 in 10.0 mi Calm Calm - N/A   Scattered Clouds
6:10 PM 61.3 °F - 31.8 °F 33% 30.14 in 10.0 mi Calm Calm - N/A   Scattered Clouds
6:30 PM 60.6 °F - 32.9 °F 35% 30.14 in 10.0 mi Calm Calm - N/A   Overcast
6:50 PM 60.1 °F - 33.6 °F 37% 30.13 in 10.0 mi Calm Calm - N/A   Overcast
7:10 PM 59.7 °F - 35.6 °F 41% 30.14 in 10.0 mi Calm Calm - N/A   Overcast
7:30 PM 58.8 °F - 39.0 °F 48% 30.14 in 10.0 mi Calm Calm - N/A   Overcast
7:50 PM 57.6 °F - 40.5 °F 53% 30.14 in 10.0 mi SE 3.5 mph - N/A   Overcast
8:10 PM 56.3 °F - 41.7 °F 58% 30.14 in 10.0 mi Calm Calm - N/A   Overcast
8:30 PM 55.6 °F - 42.1 °F 60% 30.15 in 10.0 mi Calm Calm - N/A   Overcast
8:50 PM 54.9 °F - 42.6 °F 63% 30.16 in 10.0 mi Calm Calm - N/A   Scattered Clouds
9:10 PM 54.1 °F - 42.3 °F 64% 30.16 in 10.0 mi Calm Calm - N/A   Clear
9:30 PM 53.8 °F - 41.7 °F 64% 30.16 in 10.0 mi Calm Calm - N/A   Clear
9:50 PM 53.1 °F - 39.4 °F 60% 30.17 in 10.0 mi Calm Calm - N/A   Clear
10:10 PM 53.2 °F - 37.9 °F 56% 30.17 in 10.0 mi Calm Calm - N/A   Clear
10:30 PM 51.1 °F - 41.4 °F 69% 30.17 in 10.0 mi WNW 5.8 mph - N/A   Clear
10:50 PM 48.6 °F - 42.3 °F 79% 30.17 in 10.0 mi NW 4.6 mph - N/A   Clear
11:10 PM 48.0 °F - 42.4 °F 81% 30.17 in 10.0 mi North 3.5 mph - N/A   Clear
11:30 PM 47.3 °F - 42.4 °F 83% 30.16 in 10.0 mi SSE 3.5 mph - N/A   Clear
11:50 PM 45.5 °F - 41.9 °F 87% 30.17 in 10.0 mi Calm Calm - N/A   Clear